Location: Unspecified
(30.8073°N, 0.0000°E)
Time: 15:07:51
(UTC+00:00)

Tiangong 2 - Visible Passes

Search period start: 16 June 2019 00:00
Search period end: 26 June 2019 00:00
Orbit: 376 x 388 km, 42.8° (Epoch: 16 June)

Date Brightness Start Highest point End Pass type
(mag) Time Alt. Az. Time Alt. Az. Time Alt. Az.
20 Jun 3.0 04:22:59 10° SSW 04:25:30 22° SE 04:28:02 10° E visible
21 Jun 3.8 03:25:05 10° SE 03:25:29 10° SE 03:25:55 10° SE visible
22 Jun 1.7 03:59:32 17° SSW 04:01:39 46° SE 04:04:42 10° ENE visible
23 Jun 3.1 03:02:06 20° ESE 03:02:06 20° ESE 03:04:01 10° E visible
24 Jun 1.0 03:36:47 38° WSW 03:37:50 79° NW 03:41:00 10° NE visible
25 Jun 3.2 02:39:13 23° E 02:39:13 23° E 02:40:41 10° ENE visible
25 Jun 3.0 04:11:52 10° WNW 04:14:26 23° NNW 04:17:03 10° NNE visible
